Regional Weather Roundup
Issued by NWS Grand Forks, ND

Home | Current Version | Previous Version | Graphics & Text | Print | Product List | Glossary On
Versions: 1 2 3 4 5 6 7 8 9 10 11 12 13 14 15 16 17 18 19 20 21 22 23 24 25 26 27 28 29 30 31 32 33 34 35 36 37 38 39 40 41 42 43 44 45 46 47 48 49 50
000
ASUS43 KFGF 032231
RWRFGF
PRAIRIE TO PINES  WEATHER ROUNDUP
NATIONAL WEATHER SERVICE EASTERN NORTH DAKOTA/GRAND FORKS ND
500 PM CDT SUN MAY 03 2015

 **SATELLITE DATA USED TO AUGMENT SKY COVER AT AUTOMATED STATIONS**
 *****  WEATHER ACROSS EASTERN NORTH DAKOTA  *****

CITY           SKY/WX    TMP DP  RH WIND       PRES   REMARKS
GRAND FORKS    MOSUNNY   69  26  20 NW18G25   29.90S
GRAND FRKS AFB SUNNY     68  26  20 NW15G21   29.92R
GRAND FRKS NWS   N/A     68 N/A N/A NW20        N/A
DEVILS LAKE    PTSUNNY   64  27  24 NW16G23   29.95R
FARGO          SUNNY     71  21  15 NW18G24   29.91S
WAHPETON ARPT  PTCLDY    66  27  22 N14       29.93F
$$

 ***** WEATHER ACROSS CENTRAL AND WESTERN NORTH DAKOTA  *****

CITY           SKY/WX    TMP DP  RH WIND       PRES   REMARKS
BISMARCK       PTSUNNY   65  15  14 N15G25    30.01S
MINOT          MOSUNNY   61  23  23 W15G28    29.99R
JAMESTOWN      MOSUNNY   66  19  16 NW23      29.95S
MINOT AFB      MOSUNNY   64  27  24 N15G24    29.98R
GARRISON         N/A     65  23  20 NW18      30.00R
WILLISTON      SUNNY     65  20  17 NW15G22   30.02S
DICKINSON      PTSUNNY   63  26  24 NW15G21   30.02R
HETTINGER      MOSUNNY   66  27  23 VRB7      30.02F
$$

 *****  OTHER AIRPORT OBSERVATIONS IN OUR AREA  *****

CITY           SKY/WX    TMP DP  RH WIND       PRES   REMARKS
WALHALLA       FAIR      64  27  24 NW21G28   29.92R
GRAFTON AIRPOR FAIR      66  30  26 W18       29.92R
VALLEY CITY AR FAIR      66  23  19 NW17      29.95S
CANDO          FAIR      64  25  22 NW16G23   29.96R
CAVALIER APRT  FAIR      66  27  22 NW12G22   29.91S
GWINNER        CLEAR     70  27  19 NW15      29.95S
SHEYENNE NWR     N/A     69  22  17 N10       29.95S
ROLLA          NOT AVBL
 ***** THE ABOVE OBSERVATIONS ARE NON NWS ARE NOT QUALITY
       CONTROLLED AND MAY MIS-REPORT RAIN FOR SNOW...
$$

  *****  WEATHER ACROSS NORTHERN MINNESOTA  *****

CITY           SKY/WX    TMP DP  RH WIND       PRES   REMARKS
FLAG ISLAND    SUNNY     59  34  38 NW24G36   29.85R
WARROAD        SUNNY     63  34  34 W22G28    29.88R
ROSEAU         SUNNY     64  30  27 NW12G25   29.89R
HALLOCK        MOSUNNY   66  21  18 NW13      29.90R
THF RVR FALLS  SUNNY     66  27  22 NW13      29.90S
BAUDETTE       SUNNY     65  30  27 NW17G25   29.85R
WASKISH        MOSUNNY   64  37  36 W13       29.87S
CROOKSTON      SUNNY     70  27  19 NW14G24   29.91S
$$
  *****  WEATHER ACROSS CENTRAL AND WEST MINNESOTA  *****

CITY           SKY/WX    TMP DP  RH WIND       PRES   REMARKS
FOSSTON        NOT AVBL
BEMIDJI        PTSUNNY   66  26  22 NW15G22   29.89S
PARK RAPIDS    CLOUDY    67  22  18 N14       29.88F
ELBOW LAKE     FAIR      65  31  27 N14       29.92R
WADENA         CLOUDY    64  36  34 N7        29.89F
DETROIT LAKES  MOSUNNY   63  28  27 N6        29.93S
MOORHEAD       SUNNY     72  19  14 N18       29.92S
FERGUS FALLS   PTSUNNY   66  28  24 N13G23    29.93R
MORRIS MN      MOSUNNY   72  36  26 N17       29.90R
STAPLES        CLOUDY    68  34  28 NW7       29.88S
$$
  *****  WEATHER ELSEWHERE ACROSS MINNESOTA  *****

CITY           SKY/WX    TMP DP  RH WIND       PRES   REMARKS
DULUTH         LGT RAIN  66  38  35 NW14G29   29.86R
INTRNTL FALLS  MOSUNNY   66  27  23 NW18      29.84S
ELY            CLOUDY    63  34  34 W6        29.84S
CLOQUET        RAIN      61  41  48 W7        29.88R
WHEATON        PTSUNNY   64  28  25 N15G23    29.94R
BRAINERD       LGT RAIN  67  41  38 NE5       29.88F
HIBBING        LGT RAIN  64  34  32 NW12G23   29.86R
ALEXANDRIA     CLOUDY    68  38  33 N10       29.90F
SAINT CLOUD    CLOUDY    68  37  32 N25G35    29.85R
MINNEAPOLIS    PTSUNNY   74  58  57 NW22G28   29.78R
$$

  *****  WEATHER ACROSS SOUTH DAKOTA  *****

CITY           SKY/WX    TMP DP  RH WIND       PRES   REMARKS
SIOUX FALLS    PTSUNNY   72  40  31 NE33G43   29.82F
BROOKINGS      CLOUDY    66  37  34 NE20G26   29.89F
WATERTOWN      PTSUNNY   69  36  29 N16       29.92F
HURON          PTSUNNY   74  36  25 NE20G28   29.89R
SISSETON         N/A     68  27  21 N16       29.93R
ABERDEEN       MOSUNNY   68  25  19 N20       29.96S
MITCHELL       PTSUNNY   72  40  31 NE20G26   29.87R
PIERRE         SUNNY     73  33  23 N18G26    29.94R
MOBRIDGE       PTSUNNY   66  24  20 N16       29.97S
RAPID CITY     MOSUNNY   68  37  32 NE16      30.00S
$$

  *****  SOME WEATHER IN NEARBY STATES *****

CITY           SKY/WX    TMP DP  RH WIND       PRES   REMARKS
GLASGOW MT     MOSUNNY   59  24  26 N5        30.04S
GREAT FALLS MT SUNNY     64  25  22 NE8       29.95F
CHEYENNE WY    RAIN      51  43  74 E7        30.08S
SCOTTSBLUFF NE MOSUNNY   70  38  31 NE14      29.95S
OMAHA NE       PTSUNNY   81  61  50 SE6       29.72F
DES MOINES IA  PTSUNNY   83  57  41 SW14G24   29.77F
DAVENPORT IA   PTSUNNY   74  60  61 CALM      29.85F
CHICAGO IL     CLOUDY    77  46  33 SW12      29.89F
EAU CLAIRE WI  SUNNY     81  52  36 S8        29.74F
LA CROSSE WI   PTSUNNY   85  53  33 S10       29.76F
$$

  *****  SOME NATIONAL WEATHER *****

CITY           SKY/WX    TMP DP  RH WIND       PRES   REMARKS
LA GUARDIA NY  MOSUNNY   67  44  43 S15       30.07R
RALEIGH NC     MOSUNNY   75  45  34 W5        30.15S
ATLANTA GA     PTSUNNY   78  46  32 VRB5      30.13F
NEW ORLEANS LA MOSUNNY   80  54  40 SE12      30.07F
OKLAHOMA CITY  PTSUNNY   80  55  42 S21G28    29.90F
ALBUQUERQUE NM PTSUNNY   77  29  17 W12G17    29.97F
SALT LAKE CITY PTSUNNY   75  31  19 E13       29.85F
LOS ANGELES CA MOSUNNY   63  52  67 W21       29.92F
BOISE ID       SUNNY     77  28  16 NW10      29.82F
SEATTLE WA     MOSUNNY   67  34  29 W10       29.96F
$$

*** WEATHER ACROSS MANITOBA...SASKATCHEWAN AND ONTARIO ***
                ***ONTARIO***

CITY           SKY/WX    TMP DP  RH WIND       PRES   REMARKS
GERALDTON      PTSUNNY   70  34  26 W10G20    29.71R
THUNDER BAY    CLOUDY    75  32  20 W20G28    29.73R
SIOUX LOOKOUT  MOSUNNY   59  37  44 NW16      29.79R
TORONTO        PTSUNNY   77  45  31 SW17      29.99R
BIG TROUT LK   LGT RAIN  39  34  81 NW8       29.80R
PICKLE LAKE    LGT RAIN  46  39  76 NW7       29.78R
DRYDEN         PTSUNNY   63  30  29 W23G29    29.78S
KENORA         PTSUNNY   59  36  41 NW15G25   29.85R
$$
                *** MANITOBA***

CITY           SKY/WX    TMP DP  RH WIND       PRES   REMARKS
BRANDON        PTSUNNY   61  30  31 NW17G26   29.95R
DAUPHIN        MOSUNNY   59  32  36 N20       29.94R
ISLAND LAKE    PTSUNNY   43  32  65 NE5       29.87R
PILOT MOUND      N/A     61  27  27 NW17G23     N/A
THE PAS        LGT RAIN  50  30  46 NW9G21    29.93S
THOMPSON       PTSUNNY   39  27  60 N12G17    29.91R
WINNIPEG       MOSUNNY   61  34  36 NW22G31   29.92S
LYNN LAKE      CLOUDY    37  30  75 W7        29.90R
CHURCHILL      CLOUDY    28  23  80 N14       29.89R WCI  17
GILLAM         CLOUDY    30  25  80 N10       29.91R WCI  21
$$
                ***SASKATCHEWAN***

CITY           SKY/WX    TMP DP  RH WIND       PRES   REMARKS
ESTEVAN        MOSUNNY   61  25  25 W21G26    30.02S
KINDERSLEY     PTSUNNY   52  28  40 W16       30.06R
LLOYDMINSTER   LGT RAIN  41  36  81 NW16G24   30.05R
PRINCE ALBERT  MOSUNNY   55  30  38 W13G23    30.00R
REGINA         MOSUNNY   57  25  28 NW13      30.03S
YORKTON        MOSUNNY   55  27  33 NW14G21   29.99R
N. BATTLEFORD  PTSUNNY   55  27  33 NW9       30.04S
LA RONGE       PTSUNNY   50  21  32 NW16G26   29.99R
SASKATOON      PTSUNNY   55  27  33 W15       30.03R
SWIFT CURRENT  CLOUDY    55  23  28 NW16G24   30.03S
$$
NOTE: THESE ARE AUTOMATED STATIONS WITH LIMITED QUALITY CONTROL
      "FAIR" INDICATES FEW OR NO CLOUDS BELOW 12,000 FEET WITH NO
      SIGNIFICANT WEATHER AND/OR OBSTRUCTIONS TO VISIBILITY.
      SKY/WX - SKY CONDITION AND SIGNIFICANT WEATHER.
      TMP - AIR TEMPERATURE.    DP   - DEWPOINT TEMPERATURE.
      RH  - RELATIVE HUMIDITY.  PRES - PRESSURE.
      HX  - HEAT INDEX.         WCI  - WIND CHILL INDEX.
$


USA.gov is the U.S. government's official web portal to all federal, state and local government web resources and services.